Regional Weather Roundup
Issued by NWS

Home | Current Version | Previous Version | Graphics & Text | Print | Product List | Glossary On
Versions: 1 2 3 4 5 6 7 8 9 10 11 12 13 14 15 16 17 18 19 20 21 22 23 24 25 26 27
000
ASUS45 KBOU 200207
RWRCO

WEATHER ROUNDUP FOR COLORADO
NATIONAL WEATHER SERVICE DENVER/BOULDER CO
700 PM MST SUN FEB 19 2017

NOTE: "FAIR" INDICATES FEW OR NO CLOUDS BELOW 12000 FEET WITH NO
SIGNIFICANT WEATHER AND/OR OBSTRUCTIONS TO VISIBILITY.

COZ001>005-013-030-031-200300-
...NORTHWEST COLORADO...

CITY           SKY/WX    TMP DP  RH WIND       PRES   REMARKS
CRAIG          LGT SNOW  33  31  92 SW10      29.85R FOG     WCI  25
HAYDEN         CLOUDY    32  28  86 W14       29.82R VSB 1/2 WCI  22
MEEKER         LGT SNOW  34  32  92 CALM      29.83R FOG
MOUNT WERNER   NOT AVBL
STEAMBOAT SPGS CLOUDY    34  33  94 SW9       29.80R WCI  27
WALDEN         NOT AVBL
$$

COZ006>008-011-200300-
...WEST CENTRAL VALLEYS...

CITY           SKY/WX    TMP DP  RH WIND       PRES   REMARKS
GRAND JUNCTION LGT RAIN  42  42 100 NW13      29.85R
MONTROSE       CLOUDY    43  28  55 S6        29.86R
EAGLE          CLOUDY    39  28  65 W10       29.83R
RIFLE          CLOUDY    41  35  79 W13       29.84R
DELTA          LGT RAIN  46  36  68 SW3       29.87R
NUCLA          CLOUDY    41  32  70 CALM      29.92R
$$

COZ017>023-064>068-200300-
...SOUTHWEST COLORADO...

CITY           SKY/WX    TMP DP  RH WIND       PRES   REMARKS
DURANGO        MOCLDY    34  30  85 W9        29.90R WCI  27
CORTEZ         CLOUDY    39  36  89 CALM      29.91R
PAGOSA SPRINGS MOCLDY    32  32  99 CALM      29.91R
TELLURIDE      NOT AVBL
WOLF CREEK PAS SNOW      18  18 100 S17G24    29.93S VSB 1/2 WCI   2
$$

COZ009-010-012-014-032>034-037-058>063-200300-
...CENTRAL COLORADO...

CITY           SKY/WX    TMP DP  RH WIND       PRES   REMARKS
ASPEN          CLOUDY    33  30  88 NW3       29.82R
BUENA VISTA    CLOUDY    37  19  47 NW21G35   29.78R
COPPER MTN     LGT SNOW  25  19  80 MISG      29.84R VSB 3/4
BERTHOUD PASS  HVY SNOW  19  10  68 MISG      29.81R VSB<1/4
COTTONWOOD PAS CLOUDY    32  18  55 SW26G40   29.80R WCI  18
GUNNISON       CLOUDY    35  25  66 N3        29.86R
KREMMLING      DRIZZLE   37  36  93 S8        29.79R
LEADVILLE      LGT SNOW  25  22  88 N7        29.81R FOG     WCI  17
MONARCH PASS   SNOW      19  18  93 MISG      29.91S VSB 1/2
SALIDA         FAIR      40  21  46 SW16G23   29.85R
SUNLIGHT       NOT AVBL
WILKERSON PASS CLOUDY    23  21  93 W13G23    29.81R FOG     WCI  11
$$

COZ069>075-200300-
...SAN LUIS VALLEY/SANGRE DE CRISTO MOUNTAINS...

CITY           SKY/WX    TMP DP  RH WIND       PRES   REMARKS
ALAMOSA        FAIR      34  23  64 VRB6G18   29.81R WCI  29
LA VETA PASS   FAIR      27  19  74 N24G38    29.79F WCI  12
SAGUACHE       FAIR      34  27  75 NW20G25   29.80R WCI  22
$$

COZ035-036-038>040-200300-
...NORTHERN COLORADO FRONT RANGE...

CITY           SKY/WX    TMP DP  RH WIND       PRES   REMARKS
DENVER INTL AP CLOUDY    55  25  31 NW22G28   29.61R
DMNS CITY PARK   N/A     54  29  38 NW6G13    29.60R
AURORA         MOCLDY    52  27  38 NW9       29.61R
FRONT RANGE AP MOCLDY    54  25  32 W13       29.62R
ERIE MUNI ARPT CLOUDY    51  34  52 N5        29.62R
BOULDER MUN AP LGT RAIN  52  32  46 CALM      29.63R
CENTENNIAL     MOCLDY    52  24  33 N9        29.61R
BROOMFIELD     CLOUDY    50  36  57 N9        29.63R
FORT COLLINS   LGT RAIN  51  34  52 NW13      29.63R
LONGMONT       CLOUDY    55  32  41 N6        29.64R
$$

COZ041-046-047-076>085-087-088-200300-
...PIKES PEAK/PALMER DIVIDE AND SOUTHERN FOOTHILLS...

CITY           SKY/WX    TMP DP  RH WIND       PRES   REMARKS
COLO. SPRINGS  MOCLDY    49  18  29 SW18      29.65R
A. F. ACADEMY  CLOUDY    49  20  32 W16G28    29.64R
SCHRIEVER AFB  MOCLDY    44  20  37 S10G20    29.66R
ELLICOTT       FAIR     N/A N/A N/A SW13      29.65R
FALCON         FAIR      44  19  36 S15G22    29.67R
FORT CARSON    FAIR      51  20  29 SW17G24   29.64R
LIMON          FAIR      50  26  39 S17       29.64R
MONUMENT HILL  CLOUDY    45  23  42 SW7       29.67R
TRINIDAD       FAIR      47  18  31 W13       29.72R
$$

COZ042>045-048>051-090-091-200300-
...NORTHEAST COLORADO...

CITY           SKY/WX    TMP DP  RH WIND       PRES   REMARKS
GREELEY ARPT   FAIR      53  33  46 NW22      29.59R
AKRON          FAIR      57  24  28 S23G35    29.59R
BURLINGTON     FAIR      58  31  35 S26       29.67R
WRAY           NOT AVBL
STERLING       FAIR      59  30  33 S14G20    29.57R
HOLYOKE        FAIR      61  32  33 S25G33    29.58S
FORT MORGAN    FAIR      56  22  27 S15       29.57R
$$

COZ086-089-092>099-200300-
...SOUTHEAST COLORADO...

CITY           SKY/WX    TMP DP  RH WIND       PRES   REMARKS
PUEBLO         FAIR      54  21  27 SW15      29.63R
LA JUNTA       FAIR      56  28  34 S14       29.66R
LAMAR          FAIR      57  32  38 S22G28    29.66S
SPRINGFIELD      N/A     51  33  50 S16       29.74S
$$




USA.gov is the U.S. government's official web portal to all federal, state and local government web resources and services.